CW2235 Kristiansand NO current weather conditions

sailwx.info

Wind from 083 at 4 knots gusting 12

Air temperature 19.4° C
Dewpoint 15.1° C

Last reported at 2020-Aug-10 18:05 UTC.
Time now 2020-Aug-10 19:04 UTC

Location: N 58°05' E 008°01'.
View on Google Maps.

See reports from other nearby stations

  
Tides and Currents Weather Stations Pressure Air Temp Water Temp Dewpoint Dewpoint Depression Visibility Wind Speed Wind Dir Waves Ship Positions
date/time (UTC)wind fromknots sea level pressurealtimeterstation pressurevisibilityair tempwater tempwave heightnotes
2020-Aug-10 18:05 083 4 gusting 12 19.4
2020-Aug-10 17:55 095 6 gusting 10 19.4
2020-Aug-10 17:45 058 6 gusting 12 20.0
2020-Aug-10 17:40 073 6 gusting 12 20.0
2020-Aug-10 17:35 108 6 gusting 11 20.0
2020-Aug-10 17:30 106 6 gusting 11 20.0
2020-Aug-10 17:25 080 6 gusting 12 20.0
2020-Aug-10 17:20 048 6 gusting 12 20.0
2020-Aug-10 17:15 093 7 gusting 13 20.0
2020-Aug-10 17:10 083 5 gusting 11 20.0
2020-Aug-10 17:05 101 7 gusting 14 20.0
2020-Aug-10 17:00 078 7 gusting 12 20.0
2020-Aug-10 16:55 056 6 gusting 12 20.0
2020-Aug-10 16:50 110 7 gusting 13 20.0
2020-Aug-10 16:45 068 7 gusting 12 20.0
2020-Aug-10 16:40 091 6 gusting 12 20.0
2020-Aug-10 16:35 097 7 gusting 13 20.0
2020-Aug-10 16:30 098 8 gusting 14 20.0
2020-Aug-10 16:25 097 10 gusting 14 20.0
2020-Aug-10 16:20 106 11 gusting 15 20.0
2020-Aug-10 16:15 099 11 gusting 17 20.0
2020-Aug-10 16:10 087 12 gusting 17 20.0
2020-Aug-10 16:05 123 11 gusting 17 20.0
2020-Aug-10 16:00 100 8 gusting 13 20.6
2020-Aug-10 15:55 091 7 gusting 12 20.6
2020-Aug-10 15:50 094 7 gusting 15 20.6
2020-Aug-10 15:45 089 6 gusting 13 20.6
2020-Aug-10 15:40 112 8 gusting 13 20.6
2020-Aug-10 15:35 071 6 gusting 11 20.6
2020-Aug-10 15:30 095 7 gusting 15 20.6
2020-Aug-10 15:25 110 8 gusting 14 20.0
2020-Aug-10 15:20 102 9 gusting 13 20.0
2020-Aug-10 15:15 087 8 gusting 13 20.0
2020-Aug-10 15:10 100 11 gusting 15 20.0
2020-Aug-10 15:05 107 12 gusting 17 20.0
2020-Aug-10 15:00 103 13 gusting 18 20.0
2020-Aug-10 14:55 104 12 gusting 18 20.0
2020-Aug-10 14:50 102 11 gusting 18 20.0
2020-Aug-10 14:45 081 11 gusting 17 20.0
2020-Aug-10 14:40 088 11 gusting 15 20.0
2020-Aug-10 14:35 099 11 gusting 17 20.0
2020-Aug-10 14:30 093 10 gusting 15 20.0
2020-Aug-10 14:25 094 11 gusting 17 20.0
2020-Aug-10 14:20 084 11 gusting 15 20.0
2020-Aug-10 14:15 087 9 gusting 15 20.0
2020-Aug-10 14:10 058 12 gusting 15 20.0
2020-Aug-10 14:05 104 11 gusting 15 20.0
2020-Aug-10 14:00 058 10 gusting 15 20.0
2020-Aug-10 13:55 088 10 gusting 17 20.0
2020-Aug-10 13:50 123 11 gusting 15 20.0
2020-Aug-10 13:45 072 11 gusting 14 20.0
2020-Aug-10 13:40 101 12 gusting 14 20.0
2020-Aug-10 13:35 115 11 gusting 15 20.0
2020-Aug-10 13:30 095 11 gusting 17 20.0
2020-Aug-10 13:25 124 11 gusting 14 20.0
2020-Aug-10 13:20 116 8 gusting 14 20.0
2020-Aug-10 13:15 100 7 gusting 13 20.0
2020-Aug-10 13:10 091 8 gusting 13 20.0
2020-Aug-10 13:05 121 8 gusting 15 20.0
2020-Aug-10 13:00 082 12 gusting 17 19.4
2020-Aug-10 12:55 086 13 gusting 17 19.4
2020-Aug-10 12:50 084 11 gusting 15 19.4
2020-Aug-10 12:45 119 10 gusting 13 20.0
2020-Aug-10 12:40 071 10 gusting 15 19.4
2020-Aug-10 12:35 101 11 gusting 14 19.4
2020-Aug-10 12:30 127 10 gusting 13 20.0
2020-Aug-10 12:25 082 8 gusting 13 20.0
2020-Aug-10 12:20 117 10 gusting 14 20.0
2020-Aug-10 12:15 098 8 gusting 13 20.0
2020-Aug-10 12:10 099 9 gusting 13 20.0
2020-Aug-10 12:05 120 8 gusting 14 19.4
2020-Aug-10 11:55 109 11 gusting 17 20.0
2020-Aug-10 11:50 126 7 gusting 17 20.0
2020-Aug-10 11:45 106 9 gusting 13 20.0
2020-Aug-10 11:40 071 9 gusting 13 19.4
2020-Aug-10 11:35 110 10 gusting 15 19.4
2020-Aug-10 11:30 110 10 gusting 14 19.4
2020-Aug-10 11:25 087 12 gusting 17 19.4
2020-Aug-10 11:20 100 11 gusting 18 19.4
2020-Aug-10 11:10 126 12 gusting 17 19.4
2020-Aug-10 11:05 117 12 gusting 15 20.0
2020-Aug-10 11:00 133 8 gusting 13 20.0
2020-Aug-10 10:55 125 7 gusting 12 20.0
2020-Aug-10 10:50 137 5 gusting 11 20.0
2020-Aug-10 10:45 123 7 gusting 11 20.0
2020-Aug-10 10:40 123 6 gusting 13 20.0
2020-Aug-10 10:35 097 6 gusting 13 20.0
2020-Aug-10 10:30 079 8 gusting 13 20.0
2020-Aug-10 10:25 092 7 gusting 12 20.0
2020-Aug-10 10:20 125 7 gusting 13 20.0
2020-Aug-10 10:15 124 10 gusting 14 20.0
2020-Aug-10 10:10 102 6 gusting 11 20.6
2020-Aug-10 10:05 084 6 gusting 10 20.6
2020-Aug-10 10:00 078 5 gusting 10 20.6
2020-Aug-10 09:55 046 7 gusting 11 20.6
2020-Aug-10 09:50 070 7 gusting 11 20.6
2020-Aug-10 09:45 051 5 gusting 10 20.6
2020-Aug-10 09:40 044 7 gusting 12 20.6
2020-Aug-10 09:35 045 6 gusting 12 20.6
2020-Aug-10 09:30 047 6 gusting 12 20.6
2020-Aug-10 09:25 055 7 gusting 12 20.0
2020-Aug-10 09:20 044 9 gusting 13 20.0
2020-Aug-10 09:15 041 7 gusting 12 20.0
2020-Aug-10 09:10 037 10 gusting 14 20.0
2020-Aug-10 09:05 044 8 gusting 14 20.0
2020-Aug-10 09:00 056 9 gusting 13 20.0
2020-Aug-10 08:55 072 8 gusting 13 20.0
2020-Aug-10 08:50 053 7 gusting 14 20.0
2020-Aug-10 08:40 054 8 gusting 13 20.6
2020-Aug-10 08:35 054 11 gusting 14 20.6
2020-Aug-10 08:30 047 7 gusting 14 20.6
2020-Aug-10 08:25 045 9 gusting 15 20.6
2020-Aug-10 08:20 043 13 gusting 17 20.6
2020-Aug-10 08:15 039 13 gusting 17 20.6
2020-Aug-10 08:10 063 8 gusting 13 20.6
2020-Aug-10 08:05 043 8 gusting 13 20.6
2020-Aug-10 08:00 035 6 gusting 10 20.6
2020-Aug-10 07:55 058 6 gusting 11 20.6
2020-Aug-10 07:50 060 6 gusting 12 20.6
2020-Aug-10 07:45 060 5 gusting 10 20.6
2020-Aug-10 07:40 055 4 gusting 6 20.6
2020-Aug-10 07:35 066 2 gusting 6 20.0
2020-Aug-10 07:25 030 5 gusting 6 20.0
2020-Aug-10 07:20 032 6 gusting 7 19.4
2020-Aug-10 07:15 029 6 gusting 7 19.4
2020-Aug-10 07:10 031 5 gusting 6 19.4
2020-Aug-10 07:05 031 5 gusting 7 18.9
2020-Aug-10 07:00 031 4 gusting 6 18.9
2020-Aug-10 06:55 031 4 gusting 5 18.9
2020-Aug-10 06:50 030 2 gusting 4 18.9
2020-Aug-10 06:45 028 2 gusting 5 18.3
2020-Aug-10 06:40 032 3 gusting 5 18.3
2020-Aug-10 06:35 028 4 gusting 6 18.3
2020-Aug-10 06:30 030 4 gusting 6 18.3
2020-Aug-10 06:25 029 6 gusting 6 17.8
2020-Aug-10 06:20 031 5 gusting 6 17.8
2020-Aug-10 06:15 029 5 gusting 6 17.8
2020-Aug-10 06:10 028 3 gusting 6 17.8
2020-Aug-10 06:05 030 4 gusting 6 17.8
2020-Aug-10 06:00 029 3 gusting 6 17.8
2020-Aug-10 05:55 032 4 gusting 6 17.8
2020-Aug-10 05:50 023 4 gusting 6 17.8
2020-Aug-10 05:45 032 5 gusting 6 17.8
2020-Aug-10 05:40 027 5 gusting 6 17.2
2020-Aug-10 05:35 027 5 gusting 7 17.2
2020-Aug-10 05:25 028 4 gusting 6 17.2
2020-Aug-10 05:20 026 5 gusting 6 17.2
2020-Aug-10 05:15 026 3 gusting 6 17.2
2020-Aug-10 05:10 017 3 gusting 4 17.2
2020-Aug-10 05:05 023 4 gusting 5 17.2
2020-Aug-10 04:55 026 3 gusting 6 16.7
2020-Aug-10 04:50 024 4 gusting 5 16.7
2020-Aug-10 04:45 018 4 gusting 5 16.7
2020-Aug-10 04:40 031 3 gusting 5 16.7
2020-Aug-10 04:35 022 4 gusting 5 16.7
2020-Aug-10 04:30 016 3 gusting 5 16.7
2020-Aug-10 04:25 023 4 gusting 6 16.7
2020-Aug-10 04:20 022 3 gusting 5 16.7
2020-Aug-10 04:15 022 2 gusting 6 16.7
2020-Aug-10 04:10 021 3 gusting 6 16.1
2020-Aug-10 04:05 014 4 gusting 5 16.1
2020-Aug-10 04:00 013 5 gusting 6 16.1
2020-Aug-10 03:55 010 5 gusting 6 16.1
2020-Aug-10 03:50 022 5 gusting 7 16.1
2020-Aug-10 03:45 013 5 gusting 6 16.1
2020-Aug-10 03:40 016 4 gusting 6 16.1
2020-Aug-10 03:35 015 5 gusting 6 16.7
2020-Aug-10 03:30 016 4 gusting 6 16.7
2020-Aug-10 03:25 022 3 gusting 5 16.7
2020-Aug-10 03:20 018 4 gusting 6 16.7
2020-Aug-10 03:15 013 5 gusting 6 16.7
2020-Aug-10 03:10 011 6 gusting 6 16.7
2020-Aug-10 03:05 011 4 gusting 6 16.7
2020-Aug-10 03:00 013 4 gusting 7 16.7
2020-Aug-10 02:55 009 6 gusting 7 16.7
2020-Aug-10 02:45 008 5 gusting 6 16.7
2020-Aug-10 02:40 017 4 gusting 6 16.7
2020-Aug-10 02:35 022 3 gusting 6 16.7
2020-Aug-10 02:30 020 3 gusting 6 16.7
2020-Aug-10 02:25 014 4 gusting 6 16.7
2020-Aug-10 02:20 011 4 gusting 6 16.7
2020-Aug-10 02:15 016 4 gusting 6 16.7
2020-Aug-10 02:10 007 5 gusting 6 16.7
2020-Aug-10 02:05 007 5 gusting 6 16.7
2020-Aug-10 02:00 005 4 gusting 6 16.7
2020-Aug-10 01:55 008 4 gusting 5 16.7
2020-Aug-10 01:50 357 4 gusting 5 16.7
2020-Aug-10 01:45 355 4 gusting 6 16.7
2020-Aug-10 01:40 355 5 gusting 6 16.7
2020-Aug-10 01:35 353 5 gusting 6 16.7
2020-Aug-10 01:30 353 4 gusting 6 16.7
2020-Aug-10 01:25 007 5 gusting 6 16.7
2020-Aug-10 01:20 009 5 gusting 6 16.7
2020-Aug-10 01:15 032 2 gusting 5 16.7
2020-Aug-10 01:10 025 2 gusting 4 16.7
2020-Aug-10 01:05 024 2 gusting 5 16.7
2020-Aug-10 01:00 16.7
2020-Aug-10 00:55 16.7
2020-Aug-10 00:50 004 4 gusting 5 16.7
2020-Aug-10 00:40 356 5 gusting 6 16.7
2020-Aug-10 00:35 16.7
2020-Aug-10 00:30 356 5 gusting 5 16.7
2020-Aug-10 00:25 350 4 gusting 5 16.7
2020-Aug-10 00:20 355 5 gusting 6 16.7
2020-Aug-10 00:15 351 5 gusting 6 16.7
2020-Aug-10 00:10 356 5 gusting 6 16.7
2020-Aug-10 00:05 358 5 gusting 6 16.7
2020-Aug-10 00:00 357 5 gusting 6 16.7
2020-Aug-09 23:55 358 5 gusting 6 16.7
2020-Aug-09 23:50 005 4 gusting 5 16.7
2020-Aug-09 23:45 018 2 gusting 4 16.7
2020-Aug-09 23:40 347 3 gusting 4 16.7
2020-Aug-09 23:35 354 4 gusting 6 16.7
2020-Aug-09 23:30 356 4 gusting 5 16.7
2020-Aug-09 23:25 351 4 gusting 4 16.7
2020-Aug-09 23:20 356 2 gusting 2 16.7
2020-Aug-09 23:10 002 4 gusting 4 16.7
2020-Aug-09 23:05 358 2 gusting 4 16.7
2020-Aug-09 22:55 005 4 gusting 5 16.7
2020-Aug-09 22:50 013 4 gusting 5 16.7
2020-Aug-09 22:45 006 4 gusting 5 16.7
2020-Aug-09 22:40 006 4 gusting 4 16.7
2020-Aug-09 22:35 005 4 gusting 4 16.7
2020-Aug-09 22:30 003 2 gusting 4 16.7
2020-Aug-09 22:25 001 2 gusting 4 16.7
2020-Aug-09 22:20 002 2 gusting 4 16.7
2020-Aug-09 22:15 002 2 gusting 4 17.2
2020-Aug-09 22:10 355 2 gusting 4 17.2
2020-Aug-09 22:05 354 3 gusting 4 17.2
2020-Aug-09 22:00 347 2 gusting 2 17.2
2020-Aug-09 21:55 339 17.2
2020-Aug-09 21:50 332 17.2
2020-Aug-09 21:45 331 17.2
2020-Aug-09 21:40 323 17.8
2020-Aug-09 21:35 321 17.8
2020-Aug-09 21:30 320 17.8
2020-Aug-09 21:25 320 17.8
2020-Aug-09 21:20 316 17.8
2020-Aug-09 21:15 316 17.8
2020-Aug-09 21:10 314 17.8
2020-Aug-09 21:05 314 17.8
2020-Aug-09 20:55 311 17.8
2020-Aug-09 20:50 311 17.8
2020-Aug-09 20:45 311 17.8
2020-Aug-09 20:40 311 17.8
2020-Aug-09 20:35 311 17.8
2020-Aug-09 20:25 311 17.8
2020-Aug-09 20:20 311 17.8
2020-Aug-09 20:15 311 18.3
2020-Aug-09 20:10 311 18.3
2020-Aug-09 20:05 311 18.3
2020-Aug-09 20:00 311 18.3
2020-Aug-09 19:55 311 18.3
2020-Aug-09 19:50 311 18.3
2020-Aug-09 19:45 311 18.9
2020-Aug-09 19:40 311 18.9
2020-Aug-09 19:35 311 18.9
2020-Aug-09 19:30 311 18.9
2020-Aug-09 19:25 311 19.4
2020-Aug-09 19:20 311 19.4
2020-Aug-09 19:15 311 19.4
2020-Aug-09 19:10 311 19.4
2020-Aug-09 19:05 311 20.0
2020-Aug-09 19:00 311 20.0
2020-Aug-09 18:55 311 20.0
2020-Aug-09 18:50 311 20.0
2020-Aug-09 18:45 311 20.6
2020-Aug-09 18:40 311 20.6
2020-Aug-09 18:35 311 0 gusting 1 20.6
2020-Aug-09 18:30 311 20.6
2020-Aug-09 18:25 311 20.6
2020-Aug-09 18:20 311 20.6
2020-Aug-09 18:10 311 21.1
2020-Aug-09 18:05 311 21.1
2020-Aug-09 18:00 311 21.1
2020-Aug-09 17:55 310 20.6
2020-Aug-09 17:50 309 0 gusting 2 20.6
2020-Aug-09 17:40 314 0 gusting 2 20.6
2020-Aug-09 17:35 309 0 gusting 2 20.6
2020-Aug-09 17:30 296 0 gusting 2 20.6
2020-Aug-09 17:25 311 0 gusting 2 20.6
2020-Aug-09 17:20 341 0 gusting 2 20.6
2020-Aug-09 17:15 272 0 gusting 2 20.0
2020-Aug-09 17:10 307 1 gusting 5 20.6
2020-Aug-09 17:05 299 2 gusting 5 20.6
2020-Aug-09 16:55 336 20.6
2020-Aug-09 16:50 335 0 gusting 4 20.6
2020-Aug-09 16:45 253 20.0
2020-Aug-09 16:40 20.0
2020-Aug-09 16:35 250 1 gusting 5 20.0
2020-Aug-09 16:30 281 3 gusting 5 20.0
2020-Aug-09 16:25 323 1 gusting 4 20.0
2020-Aug-09 16:20 325 1 gusting 4 20.0
2020-Aug-09 16:15 244 1 gusting 4 20.0
2020-Aug-09 16:10 203 2 gusting 5 20.0
2020-Aug-09 16:05 029 2 gusting 5 20.0
2020-Aug-09 16:00 026 4 gusting 6 20.0
2020-Aug-09 15:55 031 2 gusting 6 20.0
2020-Aug-09 15:50 035 2 gusting 5 20.0
2020-Aug-09 15:45 020 2 gusting 6 20.0
2020-Aug-09 15:40 026 2 gusting 5 20.0
2020-Aug-09 15:35 211 2 gusting 6 19.4
2020-Aug-09 15:30 032 2 gusting 6 19.4
2020-Aug-09 15:25 018 4 gusting 6 19.4
2020-Aug-09 15:20 199 4 gusting 6 19.4
2020-Aug-09 15:15 194 4 gusting 5 19.4
2020-Aug-09 15:10 188 2 gusting 5 19.4
2020-Aug-09 15:05 185 4 gusting 6 19.4
2020-Aug-09 15:00 214 4 gusting 6 19.4
2020-Aug-09 14:55 191 4 gusting 6 19.4
2020-Aug-09 14:50 195 4 gusting 6 19.4
2020-Aug-09 14:40 031 4 gusting 6 19.4
2020-Aug-09 14:35 187 4 gusting 6 19.4
2020-Aug-09 14:30 180 4 gusting 6 19.4
2020-Aug-09 14:25 191 4 gusting 6 19.4
2020-Aug-09 14:20 190 6 gusting 6 19.4
2020-Aug-09 14:10 191 4 gusting 7 19.4
2020-Aug-09 14:05 173 6 gusting 10 18.9
2020-Aug-09 14:00 189 6 gusting 10 19.4
2020-Aug-09 13:55 195 5 gusting 7 19.4
2020-Aug-09 13:50 198 5 gusting 8 19.4
2020-Aug-09 13:45 184 4 gusting 8 19.4
2020-Aug-09 13:40 193 6 gusting 8 19.4
2020-Aug-09 13:35 188 4 gusting 6 20.0
2020-Aug-09 13:30 173 5 gusting 7 19.4
2020-Aug-09 13:25 129 5 gusting 8 19.4
2020-Aug-09 13:20 109 5 gusting 10 19.4
2020-Aug-09 13:15 127 6 gusting 8 19.4
2020-Aug-09 13:10 132 6 gusting 8 19.4
2020-Aug-09 13:05 149 5 gusting 8 19.4
2020-Aug-09 13:00 130 6 gusting 10 19.4
2020-Aug-09 12:55 143 5 gusting 8 19.4
2020-Aug-09 12:50 122 6 gusting 8 19.4
2020-Aug-09 12:45 147 6 gusting 8 19.4
2020-Aug-09 12:40 095 5 gusting 10 20.0
2020-Aug-09 12:35 158 5 gusting 10 19.4
2020-Aug-09 12:30 167 6 gusting 10 19.4
2020-Aug-09 12:25 156 6 gusting 10 19.4
2020-Aug-09 12:20 146 7 gusting 11 19.4
2020-Aug-09 12:15 152 7 gusting 10 19.4
2020-Aug-09 12:10 149 6 gusting 8 19.4
2020-Aug-09 12:05 147 7 gusting 10 19.4
2020-Aug-09 12:00 146 7 gusting 10 19.4
2020-Aug-09 11:55 153 6 gusting 10 19.4
2020-Aug-09 11:45 150 6 gusting 10 19.4
2020-Aug-09 11:40 102 7 gusting 10 20.0
2020-Aug-09 11:35 159 6 gusting 10 20.0
2020-Aug-09 11:30 150 7 gusting 11 20.0
2020-Aug-09 11:25 136 5 gusting 10 20.0
2020-Aug-09 11:20 138 6 gusting 13 20.0
2020-Aug-09 11:15 145 6 gusting 10 20.0
2020-Aug-09 11:10 130 7 gusting 12 20.0
2020-Aug-09 11:05 093 6 gusting 11 20.0
2020-Aug-09 11:00 131 6 gusting 12 20.0
2020-Aug-09 10:55 123 7 gusting 11 20.0
2020-Aug-09 10:50 125 6 gusting 11 20.0
2020-Aug-09 10:45 128 6 gusting 10 20.0
2020-Aug-09 10:40 119 6 gusting 10 20.0
2020-Aug-09 10:35 123 6 gusting 11 20.0
2020-Aug-09 10:25 128 5 gusting 10 20.0
2020-Aug-09 10:20 114 6 gusting 10 20.0
2020-Aug-09 10:15 125 6 gusting 8 20.0
2020-Aug-09 10:10 130 8 gusting 12 20.0
2020-Aug-09 10:05 120 5 gusting 10 20.0
2020-Aug-09 10:00 128 6 gusting 10 20.0
2020-Aug-09 09:55 120 6 gusting 8 20.0
2020-Aug-09 09:50 101 6 gusting 11 20.0
2020-Aug-09 09:45 127 9 gusting 13 20.0
2020-Aug-09 09:35 121 5 gusting 12 20.6
2020-Aug-09 09:25 124 6 gusting 10 20.0
2020-Aug-09 09:20 135 4 gusting 7 20.0
2020-Aug-09 09:15 150 2 gusting 6 20.0
2020-Aug-09 09:10 130 2 gusting 6 20.0
2020-Aug-09 09:00 139 4 gusting 6 19.4
2020-Aug-09 08:55 169 2 gusting 6 19.4
2020-Aug-09 08:50 146 4 gusting 6 18.9
2020-Aug-09 08:45 168 2 gusting 4 18.9
2020-Aug-09 08:40 166 3 gusting 6 18.9
2020-Aug-09 08:30 164 2 gusting 5 19.4
2020-Aug-09 08:25 128 2 gusting 4 20.0
2020-Aug-09 08:20 147 1 gusting 4 20.0
2020-Aug-09 08:15 087 1 gusting 2 20.0
2020-Aug-09 08:10 047 1 gusting 2 19.4
2020-Aug-09 08:05 035 1 gusting 2 19.4
2020-Aug-09 08:00 034 1 gusting 2 18.9
2020-Aug-09 07:55 030 1 gusting 2 18.9
2020-Aug-09 07:50 035 2 gusting 4 18.9
2020-Aug-09 07:45 035 1 gusting 4 18.9
2020-Aug-09 07:40 035 2 gusting 4 18.9
2020-Aug-09 07:35 027 2 gusting 5 18.3
2020-Aug-09 07:30 030 2 gusting 4 18.3
2020-Aug-09 07:25 031 2 gusting 4 18.3
2020-Aug-09 07:20 046 2 gusting 2 17.8
2020-Aug-09 07:15 034 2 gusting 5 17.8
2020-Aug-09 07:10 034 4 gusting 5 17.8
2020-Aug-09 07:05 030 4 gusting 5 17.8
2020-Aug-09 07:00 037 3 gusting 5 17.8
2020-Aug-09 06:55 036 3 gusting 5 17.8
2020-Aug-09 06:50 032 4 gusting 5 17.8
2020-Aug-09 06:45 032 3 gusting 5 17.8
2020-Aug-09 06:40 016 2 gusting 5 17.8
2020-Aug-09 06:35 025 2 gusting 5 17.8
2020-Aug-09 06:30 012 4 gusting 6 17.2
2020-Aug-09 06:25 028 4 gusting 5 17.2
2020-Aug-09 06:20 032 2 gusting 5 17.2
2020-Aug-09 06:15 032 2 gusting 4 16.7
2020-Aug-09 06:10 027 2 gusting 4 16.7
2020-Aug-09 06:05 020 2 gusting 5 16.7
2020-Aug-09 05:55 016 2 gusting 5 16.7
2020-Aug-09 05:50 025 2 gusting 4 16.7
2020-Aug-09 05:45 022 3 gusting 4 16.7
2020-Aug-09 05:40 019 2 gusting 5 16.7
2020-Aug-09 05:35 026 2 gusting 5 16.7
2020-Aug-09 05:30 022 3 gusting 5 16.1
2020-Aug-09 05:25 013 2 gusting 5 16.1
2020-Aug-09 05:20 015 4 gusting 6 16.1
2020-Aug-09 05:10 008 5 gusting 6 16.1
2020-Aug-09 05:05 020 4 gusting 6 16.1
2020-Aug-09 05:00 011 5 gusting 6 16.1
2020-Aug-09 04:55 013 5 gusting 6 15.6
2020-Aug-09 04:50 009 5 gusting 6 15.6
2020-Aug-09 04:45 009 5 gusting 6 15.6
2020-Aug-09 04:40 009 4 gusting 6 15.6
2020-Aug-09 04:35 011 5 gusting 6 15.6
2020-Aug-09 04:30 013 5 gusting 6 15.6
2020-Aug-09 04:25 016 4 gusting 5 15.6
2020-Aug-09 04:20 022 4 gusting 6 15.6
2020-Aug-09 04:15 014 5 gusting 6 15.6
2020-Aug-09 04:10 009 4 gusting 6 15.6
2020-Aug-09 04:05 015 4 gusting 6 15.6
2020-Aug-09 04:00 020 4 gusting 6 15.6
2020-Aug-09 03:50 004 5 gusting 6 15.6
2020-Aug-09 03:45 001 5 gusting 5 15.6
2020-Aug-09 03:40 350 4 gusting 5 15.6
2020-Aug-09 03:35 351 4 gusting 6 15.6
2020-Aug-09 03:30 353 5 gusting 5 15.6
2020-Aug-09 03:25 355 4 gusting 5 15.6
2020-Aug-09 03:20 359 4 gusting 5 15.6
2020-Aug-09 03:15 001 4 gusting 6 15.6
2020-Aug-09 03:10 356 5 gusting 6 15.6
2020-Aug-09 03:05 349 5 gusting 6 15.6
2020-Aug-09 03:00 350 4 gusting 5 15.6
2020-Aug-09 02:55 351 5 gusting 6 15.6
2020-Aug-09 02:50 352 5 gusting 6 15.6
2020-Aug-09 02:45 353 5 gusting 6 15.6
2020-Aug-09 02:40 357 4 gusting 5 15.6
2020-Aug-09 02:35 001 3 gusting 5 16.1
2020-Aug-09 02:30 356 4 gusting 5 16.1
2020-Aug-09 02:25 007 2 gusting 4 16.1
2020-Aug-09 02:15 355 2 gusting 4 16.1
2020-Aug-09 02:10 356 2 gusting 2 16.1
2020-Aug-09 02:05 339 1 gusting 2 16.1
2020-Aug-09 02:00 338 16.1
2020-Aug-09 01:55 338 16.1
2020-Aug-09 01:50 338 16.1
2020-Aug-09 01:40 338 1 gusting 2 16.1
2020-Aug-09 01:35 338 0 gusting 2 16.1
2020-Aug-09 01:30 338 16.1
2020-Aug-09 01:25 338 16.7
2020-Aug-09 01:20 340 16.7
2020-Aug-09 01:15 340 0 gusting 2 16.7
2020-Aug-09 01:10 340 0 gusting 2 16.7
2020-Aug-09 01:05 340 0 gusting 2 16.7
2020-Aug-09 01:00 340 0 gusting 2 16.7
2020-Aug-09 00:55 331 1 gusting 2 16.7
2020-Aug-09 00:50 306 16.7
2020-Aug-09 00:45 305 16.7
2020-Aug-09 00:40 305 16.7
2020-Aug-09 00:35 305 17.2
2020-Aug-09 00:30 306 0 gusting 2 17.2
2020-Aug-09 00:25 306 0 gusting 2 17.2
2020-Aug-09 00:20 306 17.2
2020-Aug-09 00:15 306 17.2
2020-Aug-09 00:10 306 17.2
2020-Aug-09 00:05 306 17.2
2020-Aug-09 00:00 307 17.2
2020-Aug-08 23:55 306 17.2
2020-Aug-08 23:50 306 17.2
2020-Aug-08 23:45 301 0 gusting 1 17.2
2020-Aug-08 23:40 300 17.2
2020-Aug-08 23:35 302 17.8
2020-Aug-08 23:30 303 17.8
2020-Aug-08 23:25 304 17.8
2020-Aug-08 23:20 304 17.8
2020-Aug-08 23:10 300 17.8
2020-Aug-08 23:05 029 0 gusting 4 17.8
2020-Aug-08 23:00 301 0 gusting 5 17.8
2020-Aug-08 22:55 292 1 gusting 5 17.8
2020-Aug-08 22:50 293 2 gusting 4 18.3
2020-Aug-08 22:45 307 18.3
2020-Aug-08 22:40 307 0 gusting 2 18.3
2020-Aug-08 22:30 306 0 gusting 2 18.3
2020-Aug-08 22:25 290 1 gusting 4 18.3
2020-Aug-08 22:20 014 1 gusting 5 18.3
2020-Aug-08 22:10 292 1 gusting 5 18.3
2020-Aug-08 22:05 303 0 gusting 2 18.9
2020-Aug-08 22:00 293 0 gusting 2 18.9
2020-Aug-08 21:55 304 1 gusting 2 18.9
2020-Aug-08 21:50 287 0 gusting 2 18.9
2020-Aug-08 21:45 287 0 gusting 4 18.9
2020-Aug-08 21:40 303 0 gusting 4 18.9
2020-Aug-08 21:35 315 0 gusting 2 19.4
2020-Aug-08 21:30 291 1 gusting 5 19.4
2020-Aug-08 21:25 288 1 gusting 6 19.4
2020-Aug-08 21:20 297 2 gusting 6 19.4
2020-Aug-08 21:15 302 1 gusting 5 19.4
2020-Aug-08 21:10 291 1 gusting 5 19.4
2020-Aug-08 21:05 288 1 gusting 6 19.4
2020-Aug-08 21:00 337 0 gusting 5 19.4
2020-Aug-08 20:55 316 1 gusting 4 19.4
2020-Aug-08 20:50 296 2 gusting 7 19.4
2020-Aug-08 20:40 293 1 gusting 4 19.4
2020-Aug-08 20:35 307 1 gusting 6 20.0
2020-Aug-08 20:30 314 1 gusting 6 20.0
2020-Aug-08 20:25 341 1 gusting 5 20.0
2020-Aug-08 20:20 328 3 gusting 6 20.0
2020-Aug-08 20:15 288 2 gusting 6 20.0
2020-Aug-08 20:10 322 1 gusting 5 20.0
2020-Aug-08 20:05 281 2 gusting 5 20.0
2020-Aug-08 20:00 318 2 gusting 5 20.0
2020-Aug-08 19:55 011 1 gusting 4 20.0
2020-Aug-08 19:50 281 0 gusting 2 20.0
2020-Aug-08 19:45 265 2 gusting 5 20.0
2020-Aug-08 19:40 317 2 gusting 4 20.0
2020-Aug-08 19:35 332 2 gusting 6 20.0
2020-Aug-08 19:30 351 2 gusting 6 20.0
2020-Aug-08 19:25 296 2 gusting 5 20.0
2020-Aug-08 19:20 300 2 gusting 5 20.6
2020-Aug-08 19:15 284 4 gusting 5 20.6
2020-Aug-08 19:10 312 4 gusting 6 20.6
2020-Aug-08 19:05 20.6
2020-Aug-08 19:00 003 4 gusting 6 20.6